N60DM KBRO-KNEW

Flight info

Callsign N60DM
Flight time 1h 39m
Altitude 25000
Route TBD OLEDD4
Aircraft BE60/L-SDFGRY/C

Departure

Time 2026-05-07 00:28
Airport Brownsville South Padre Island International Airport (KBRO)

Arrival

Time 2026-05-07 02:08
Airport Lakefront Airport (KNEW)
Time Latitude Longitude Altitude Speed Heading
2026-05-07 00:12 25.90886 -97.43123 24 ft 0 kts 179°
2026-05-07 00:18 25.90885 -97.43123 24 ft 1 kts 179°
2026-05-07 00:18 25.90865 -97.43114 25 ft 6 kts 119°
2026-05-07 00:18 25.90896 -97.43067 24 ft 11 kts 28°
2026-05-07 00:18 25.90993 -97.43056 24 ft 17 kts
2026-05-07 00:19 25.91094 -97.43101 24 ft 14 kts 320°
2026-05-07 00:19 25.91168 -97.43142 25 ft 12 kts
2026-05-07 00:19 25.91179 -97.43143 23 ft 0 kts 346°
2026-05-07 00:21 25.91180 -97.43144 23 ft 1 kts 346°
2026-05-07 00:21 25.91227 -97.43143 22 ft 15 kts
2026-05-07 00:22 25.91207 -97.43044 22 ft 34 kts 136°
2026-05-07 00:22 25.90888 -97.42702 25 ft 88 kts 134°
2026-05-07 00:22 25.90364 -97.42153 82 ft 120 kts 136°
2026-05-07 00:22 25.89756 -97.41427 327 ft 126 kts 111°
2026-05-07 00:23 25.89884 -97.40495 619 ft 137 kts 65°
2026-05-07 00:23 25.90335 -97.39477 615 ft 158 kts 70°
2026-05-07 00:23 25.90764 -97.38244 452 ft 180 kts 75°
2026-05-07 00:23 25.91259 -97.36908 443 ft 193 kts 68°
2026-05-07 00:24 25.91874 -97.35564 410 ft 200 kts 65°
2026-05-07 00:24 25.92544 -97.34206 403 ft 202 kts 64°
2026-05-07 00:24 25.93245 -97.32843 328 ft 203 kts 62°
2026-05-07 00:24 25.93968 -97.31499 337 ft 203 kts 65°
2026-05-07 00:25 25.94632 -97.30113 333 ft 203 kts 66°
2026-05-07 00:25 25.95280 -97.28719 391 ft 203 kts 66°
2026-05-07 00:25 25.95937 -97.27330 314 ft 203 kts 67°
2026-05-07 00:25 25.96578 -97.25926 242 ft 204 kts 69°
2026-05-07 00:26 25.97128 -97.24485 175 ft 202 kts 68°
2026-05-07 00:26 25.97685 -97.23050 119 ft 202 kts 71°
2026-05-07 00:26 25.98170 -97.21634 234 ft 193 kts 78°
2026-05-07 00:26 25.98500 -97.20183 277 ft 194 kts 78°
2026-05-07 00:27 25.98799 -97.18718 308 ft 195 kts 79°
2026-05-07 00:27 25.99105 -97.17232 320 ft 199 kts 80°
2026-05-07 00:27 25.99424 -97.15755 357 ft 199 kts 78°
2026-05-07 00:27 25.99744 -97.14273 410 ft 199 kts 78°
2026-05-07 00:28 26.00070 -97.12759 461 ft 201 kts 73°
2026-05-07 00:28 26.00907 -97.11523 534 ft 205 kts 36°
2026-05-07 00:28 26.02188 -97.11009 920 ft 188 kts 15°
2026-05-07 00:28 26.03424 -97.10736 1409 ft 174 kts 13°
2026-05-07 00:29 26.04578 -97.10485 1896 ft 164 kts 13°
2026-05-07 00:29 26.05678 -97.10248 2358 ft 159 kts 12°
2026-05-07 00:30 26.08919 -97.09553 3558 ft 152 kts 11°
2026-05-07 00:30 26.09901 -97.09239 4043 ft 142 kts 24°
2026-05-07 00:30 26.10747 -97.08706 4460 ft 139 kts 36°
2026-05-07 00:30 26.11475 -97.08007 4826 ft 139 kts 45°
2026-05-07 00:31 26.12125 -97.07201 5166 ft 141 kts 52°
2026-05-07 00:31 26.12728 -97.06332 5502 ft 143 kts 55°
2026-05-07 00:31 26.13310 -97.05425 5844 ft 145 kts 56°
2026-05-07 00:31 26.13890 -97.04493 6172 ft 148 kts 58°
2026-05-07 00:32 26.14477 -97.03534 6474 ft 150 kts 57°
2026-05-07 00:32 26.15057 -97.02581 6785 ft 152 kts 58°
2026-05-07 00:32 26.15650 -97.01609 7117 ft 154 kts 58°
2026-05-07 00:32 26.16252 -97.00612 7410 ft 157 kts 58°
2026-05-07 00:33 26.16864 -96.99602 7743 ft 158 kts 58°
2026-05-07 00:33 26.17483 -96.98589 8104 ft 157 kts 57°
2026-05-07 00:33 26.18106 -96.97567 8401 ft 161 kts 57°
2026-05-07 00:33 26.18741 -96.96524 8717 ft 163 kts 58°
2026-05-07 00:34 26.19376 -96.95474 9068 ft 164 kts 57°
2026-05-07 00:34 26.20016 -96.94422 9412 ft 165 kts 57°
2026-05-07 00:34 26.20664 -96.93353 9728 ft 168 kts 57°
2026-05-07 00:34 26.21317 -96.92274 10047 ft 168 kts 57°
2026-05-07 00:35 26.21972 -96.91196 10367 ft 168 kts 57°
2026-05-07 00:35 26.22632 -96.90109 10680 ft 170 kts 57°
2026-05-07 00:35 26.23296 -96.89013 10989 ft 172 kts 57°
2026-05-07 00:35 26.23968 -96.87905 11301 ft 173 kts 57°
2026-05-07 00:36 26.24639 -96.86798 11607 ft 175 kts 57°
2026-05-07 00:36 26.25325 -96.85665 11920 ft 177 kts 57°
2026-05-07 00:36 26.26020 -96.84518 12234 ft 179 kts 56°
2026-05-07 00:36 26.26719 -96.83366 12578 ft 180 kts 56°
2026-05-07 00:37 26.27419 -96.82209 12908 ft 181 kts 57°
2026-05-07 00:37 26.28128 -96.81038 13228 ft 183 kts 57°
2026-05-07 00:37 26.28841 -96.79857 13562 ft 184 kts 56°
2026-05-07 00:37 26.29561 -96.78667 13864 ft 186 kts 57°
2026-05-07 00:38 26.30288 -96.77465 14153 ft 188 kts 57°
2026-05-07 00:38 26.31020 -96.76254 14449 ft 189 kts 57°
2026-05-07 00:38 26.31758 -96.75034 14751 ft 191 kts 57°
2026-05-07 00:38 26.32504 -96.73800 15064 ft 192 kts 57°
2026-05-07 00:39 26.33252 -96.72561 15379 ft 193 kts 58°
2026-05-07 00:39 26.34007 -96.71312 15690 ft 195 kts 58°
2026-05-07 00:39 26.34768 -96.70051 16005 ft 197 kts 58°
2026-05-07 00:39 26.35535 -96.68779 16329 ft 199 kts 58°
2026-05-07 00:40 26.36310 -96.67496 16653 ft 200 kts 59°
2026-05-07 00:40 26.37088 -96.66208 16971 ft 201 kts 59°
2026-05-07 00:40 26.37862 -96.64923 17287 ft 203 kts 59°
2026-05-07 00:40 26.38653 -96.63611 17613 ft 205 kts 59°
2026-05-07 00:41 26.39451 -96.62287 17934 ft 206 kts 59°
2026-05-07 00:41 26.40255 -96.60952 18241 ft 208 kts 59°
2026-05-07 00:41 26.41066 -96.59607 18519 ft 210 kts 59°
2026-05-07 00:41 26.41885 -96.58250 18789 ft 213 kts 59°
2026-05-07 00:42 26.42714 -96.56871 19065 ft 215 kts 59°
2026-05-07 00:42 26.43551 -96.55481 19344 ft 216 kts 58°
2026-05-07 00:42 26.44392 -96.54083 19635 ft 218 kts 58°
2026-05-07 00:42 26.45239 -96.52675 19919 ft 219 kts 58°
2026-05-07 00:43 26.46092 -96.51256 20200 ft 221 kts 58°
2026-05-07 00:43 26.46952 -96.49827 20480 ft 222 kts 57°
2026-05-07 00:43 26.47816 -96.48389 20761 ft 224 kts 57°
2026-05-07 00:43 26.48687 -96.46939 21037 ft 225 kts 57°
2026-05-07 00:44 26.49564 -96.45479 21309 ft 227 kts 56°
2026-05-07 00:44 26.50446 -96.44010 21576 ft 228 kts 56°
2026-05-07 00:44 26.51333 -96.42532 21836 ft 230 kts 56°
2026-05-07 00:44 26.52227 -96.41042 22095 ft 231 kts 56°
2026-05-07 00:45 26.53124 -96.39546 22358 ft 232 kts 56°
2026-05-07 00:45 26.54025 -96.38044 22609 ft 234 kts 56°
2026-05-07 00:45 26.54933 -96.36529 22852 ft 235 kts 56°
2026-05-07 00:45 26.55846 -96.35006 23090 ft 237 kts 55°
2026-05-07 00:46 26.56763 -96.33475 23327 ft 238 kts 55°
2026-05-07 00:46 26.57674 -96.31954 23525 ft 239 kts 55°
2026-05-07 00:46 26.58599 -96.30408 23715 ft 240 kts 55°
2026-05-07 00:46 26.59526 -96.28858 23889 ft 240 kts 55°
2026-05-07 00:47 26.60455 -96.27306 24049 ft 241 kts 55°
2026-05-07 00:47 26.61388 -96.25747 24232 ft 242 kts 55°
2026-05-07 00:47 26.62323 -96.24182 24423 ft 242 kts 55°
2026-05-07 00:47 26.63260 -96.22614 24618 ft 243 kts 55°
2026-05-07 00:48 26.64201 -96.21039 24802 ft 244 kts 55°
2026-05-07 00:48 26.65162 -96.19430 24836 ft 254 kts 55°
2026-05-07 00:48 26.66165 -96.17750 24851 ft 264 kts 55°
2026-05-07 00:48 26.67201 -96.16011 24858 ft 274 kts 55°
2026-05-07 00:49 26.68272 -96.14214 24859 ft 282 kts 55°
2026-05-07 00:49 26.69374 -96.12364 24857 ft 289 kts 55°
2026-05-07 00:49 26.70501 -96.10470 24855 ft 295 kts 55°
2026-05-07 00:49 26.71651 -96.08539 24849 ft 301 kts 55°
2026-05-07 00:50 26.72816 -96.06580 24853 ft 304 kts 55°
2026-05-07 00:50 26.73997 -96.04595 24854 ft 308 kts 55°
2026-05-07 00:50 26.75187 -96.02591 24863 ft 311 kts 55°
2026-05-07 00:50 26.76376 -96.00591 24860 ft 314 kts 55°
2026-05-07 00:51 26.77590 -95.98548 24857 ft 316 kts 55°
2026-05-07 00:51 26.78812 -95.96492 24857 ft 318 kts 55°
2026-05-07 00:51 26.80036 -95.94430 24857 ft 319 kts 55°
2026-05-07 00:51 26.81268 -95.92354 24866 ft 320 kts 55°
2026-05-07 00:52 26.82502 -95.90274 24867 ft 321 kts 55°
2026-05-07 00:52 26.83741 -95.88184 24867 ft 322 kts 55°
2026-05-07 00:52 26.84982 -95.86091 24867 ft 323 kts 55°
2026-05-07 00:52 26.86226 -95.83991 24867 ft 323 kts 55°
2026-05-07 00:53 26.87471 -95.81889 24868 ft 324 kts 55°
2026-05-07 00:53 26.88717 -95.79784 24868 ft 324 kts 56°
2026-05-07 00:53 26.89993 -95.77627 24370 ft 343 kts 56°
2026-05-07 00:53 26.91382 -95.75275 23259 ft 379 kts 56°
2026-05-07 00:54 26.92854 -95.72779 22969 ft 380 kts 56°
2026-05-07 00:54 26.94296 -95.70332 22912 ft 372 kts 56°
2026-05-07 00:54 26.95709 -95.67937 22886 ft 365 kts 56°
2026-05-07 00:54 26.97093 -95.65591 22877 ft 358 kts 56°
2026-05-07 00:55 26.98455 -95.63282 22872 ft 352 kts 56°
2026-05-07 00:55 26.99798 -95.61005 22871 ft 347 kts 56°
2026-05-07 00:55 27.01125 -95.58754 22875 ft 344 kts 56°
2026-05-07 00:55 27.02419 -95.56559 22876 ft 341 kts 56°
2026-05-07 00:56 27.03737 -95.54320 22876 ft 338 kts 56°
2026-05-07 00:56 27.05011 -95.52155 22877 ft 336 kts 56°
2026-05-07 00:56 27.06298 -95.49967 22803 ft 337 kts 56°
2026-05-07 00:56 27.07599 -95.47753 22614 ft 343 kts 56°
2026-05-07 00:57 27.08920 -95.45502 22375 ft 348 kts 56°
2026-05-07 00:57 27.10260 -95.43219 22151 ft 352 kts 56°
2026-05-07 00:57 27.11611 -95.40917 21935 ft 354 kts 56°
2026-05-07 00:57 27.12967 -95.38603 21724 ft 356 kts 56°
2026-05-07 00:58 27.13870 -95.37063 21588 ft 357 kts 56°
2026-05-07 00:58 27.15235 -95.34733 21386 ft 358 kts 56°
2026-05-07 00:58 27.16604 -95.32393 21186 ft 359 kts 56°
2026-05-07 00:58 27.17977 -95.30045 20996 ft 360 kts 56°
2026-05-07 00:59 27.20705 -95.25382 20898 ft 352 kts 56°
2026-05-07 00:59 27.22044 -95.23091 20888 ft 348 kts 56°
2026-05-07 00:59 27.23369 -95.20824 20884 ft 345 kts 56°
2026-05-07 01:00 27.24680 -95.18578 20887 ft 342 kts 56°
2026-05-07 01:00 27.25982 -95.16349 20887 ft 340 kts 56°
2026-05-07 01:00 27.27277 -95.14130 20887 ft 338 kts 56°
2026-05-07 01:00 27.28564 -95.11923 20887 ft 337 kts 56°
2026-05-07 01:01 27.29846 -95.09723 20887 ft 336 kts 56°
2026-05-07 01:01 27.31109 -95.07554 20886 ft 335 kts 56°
2026-05-07 01:01 27.32384 -95.05364 20885 ft 334 kts 56°
2026-05-07 01:01 27.33656 -95.03178 20884 ft 334 kts 57°
2026-05-07 01:02 27.34924 -95.00996 20885 ft 333 kts 56°
2026-05-07 01:02 27.36194 -94.98811 20885 ft 333 kts 57°
2026-05-07 01:02 27.37459 -94.96633 20886 ft 332 kts 57°
2026-05-07 01:02 27.38721 -94.94459 20890 ft 332 kts 56°
2026-05-07 01:03 27.39985 -94.92282 20889 ft 332 kts 56°
2026-05-07 01:03 27.41249 -94.90104 20888 ft 332 kts 56°
2026-05-07 01:03 27.42511 -94.87927 20888 ft 332 kts 56°
2026-05-07 01:03 27.43778 -94.85740 20889 ft 332 kts 56°
2026-05-07 01:04 27.45041 -94.83560 20892 ft 332 kts 56°
2026-05-07 01:04 27.46306 -94.81374 20892 ft 332 kts 56°
2026-05-07 01:04 27.47548 -94.79227 20892 ft 332 kts 56°
2026-05-07 01:04 27.48811 -94.77043 20892 ft 332 kts 56°
2026-05-07 01:05 27.50072 -94.74860 20890 ft 332 kts 56°
2026-05-07 01:05 27.51351 -94.72648 20890 ft 332 kts 56°
2026-05-07 01:05 27.52595 -94.70493 20892 ft 332 kts 56°
2026-05-07 01:05 27.53854 -94.68311 20891 ft 332 kts 56°
2026-05-07 01:06 27.55113 -94.66128 20889 ft 332 kts 56°
2026-05-07 01:06 27.56374 -94.63943 20891 ft 333 kts 56°
2026-05-07 01:06 27.57632 -94.61758 20891 ft 333 kts 56°
2026-05-07 01:06 27.58894 -94.59568 20892 ft 333 kts 56°
2026-05-07 01:07 27.60154 -94.57378 20894 ft 333 kts 56°
2026-05-07 01:07 27.61415 -94.55187 20894 ft 333 kts 56°
2026-05-07 01:07 27.62676 -94.52995 20895 ft 333 kts 56°
2026-05-07 01:07 27.63938 -94.50801 20894 ft 333 kts 56°
2026-05-07 01:08 27.65199 -94.48606 20893 ft 333 kts 56°
2026-05-07 01:08 27.66459 -94.46411 20894 ft 333 kts 56°
2026-05-07 01:08 27.67720 -94.44215 20894 ft 333 kts 56°
2026-05-07 01:08 27.68980 -94.42019 20897 ft 334 kts 56°
2026-05-07 01:09 27.70241 -94.39818 20897 ft 334 kts 56°
2026-05-07 01:09 27.71500 -94.37622 20898 ft 334 kts 56°
2026-05-07 01:09 27.72759 -94.35422 20897 ft 334 kts 56°
2026-05-07 01:09 27.74019 -94.33222 20897 ft 334 kts 56°
2026-05-07 01:10 27.75277 -94.31021 20896 ft 334 kts 56°
2026-05-07 01:10 27.76536 -94.28821 20897 ft 334 kts 56°
2026-05-07 01:10 27.77793 -94.26622 20897 ft 334 kts 56°
2026-05-07 01:10 27.79051 -94.24420 20897 ft 334 kts 56°
2026-05-07 01:11 27.80309 -94.22217 20902 ft 334 kts 56°
2026-05-07 01:11 27.81566 -94.20015 20900 ft 334 kts 56°
2026-05-07 01:11 27.82821 -94.17808 20898 ft 334 kts 56°
2026-05-07 01:11 27.84061 -94.15633 20900 ft 334 kts 56°
2026-05-07 01:12 27.85318 -94.13429 20896 ft 334 kts 56°
2026-05-07 01:12 27.86577 -94.11221 20899 ft 333 kts 56°
2026-05-07 01:12 27.87832 -94.09017 20899 ft 333 kts 56°
2026-05-07 01:12 27.89087 -94.06813 20899 ft 333 kts 56°
2026-05-07 01:13 27.90341 -94.04608 20902 ft 333 kts 56°
2026-05-07 01:13 27.91595 -94.02402 20901 ft 333 kts 56°
2026-05-07 01:13 27.92847 -94.00197 20901 ft 333 kts 56°
2026-05-07 01:13 27.94100 -93.97992 20900 ft 333 kts 56°
2026-05-07 01:14 27.95353 -93.95785 20901 ft 333 kts 56°
2026-05-07 01:14 27.96605 -93.93577 20902 ft 333 kts 56°
2026-05-07 01:14 27.97856 -93.91369 20902 ft 333 kts 56°
2026-05-07 01:14 27.99107 -93.89164 20903 ft 333 kts 56°
2026-05-07 01:15 28.00359 -93.86952 20906 ft 333 kts 56°
2026-05-07 01:15 28.01609 -93.84745 20916 ft 334 kts 56°
2026-05-07 01:15 28.02861 -93.82533 20910 ft 334 kts 56°
2026-05-07 01:15 28.04113 -93.80318 20912 ft 334 kts 56°
2026-05-07 01:16 28.05365 -93.78102 20907 ft 334 kts 56°
2026-05-07 01:16 28.06617 -93.75886 20908 ft 334 kts 56°
2026-05-07 01:16 28.07868 -93.73670 20908 ft 334 kts 56°
2026-05-07 01:16 28.09120 -93.71451 20908 ft 334 kts 56°
2026-05-07 01:17 28.10371 -93.69233 20905 ft 334 kts 56°
2026-05-07 01:17 28.11622 -93.67014 20905 ft 334 kts 56°
2026-05-07 01:17 28.12872 -93.64795 20906 ft 334 kts 56°
2026-05-07 01:17 28.14124 -93.62572 20905 ft 334 kts 56°
2026-05-07 01:18 28.15375 -93.60349 20909 ft 334 kts 56°
2026-05-07 01:18 28.16608 -93.58156 20909 ft 334 kts 56°
2026-05-07 01:18 28.17873 -93.55906 20908 ft 334 kts 56°
2026-05-07 01:18 28.19107 -93.53710 20908 ft 334 kts 56°
2026-05-07 01:19 28.20358 -93.51483 20908 ft 334 kts 56°
2026-05-07 01:19 28.21607 -93.49259 20911 ft 334 kts 56°
2026-05-07 01:19 28.22854 -93.47036 20911 ft 334 kts 56°
2026-05-07 01:19 28.24105 -93.44805 20911 ft 334 kts 56°
2026-05-07 01:20 28.25351 -93.42581 20914 ft 334 kts 56°
2026-05-07 01:20 28.26598 -93.40355 20914 ft 334 kts 56°
2026-05-07 01:20 28.27846 -93.38125 20914 ft 334 kts 56°
2026-05-07 01:20 28.29097 -93.35890 20914 ft 334 kts 56°
2026-05-07 01:21 28.30342 -93.33665 20914 ft 334 kts 56°
2026-05-07 01:21 28.31588 -93.31436 20914 ft 334 kts 56°
2026-05-07 01:21 28.32819 -93.29233 20914 ft 335 kts 56°
2026-05-07 01:21 28.34081 -93.26974 20919 ft 335 kts 56°
2026-05-07 01:22 28.35329 -93.24738 20917 ft 335 kts 56°
2026-05-07 01:22 28.36561 -93.22528 20916 ft 335 kts 56°
2026-05-07 01:22 28.37810 -93.20288 20916 ft 335 kts 56°
2026-05-07 01:22 28.39056 -93.18052 20917 ft 335 kts 56°
2026-05-07 01:23 28.40304 -93.15811 20915 ft 335 kts 56°
2026-05-07 01:23 28.41551 -93.13571 20915 ft 335 kts 56°
2026-05-07 01:23 28.42799 -93.11328 20914 ft 336 kts 56°
2026-05-07 01:23 28.44045 -93.09086 20914 ft 336 kts 56°
2026-05-07 01:24 28.45292 -93.06844 20916 ft 336 kts 56°
2026-05-07 01:24 28.46538 -93.04599 20917 ft 335 kts 56°
2026-05-07 01:24 28.47782 -93.02359 20919 ft 335 kts 56°
2026-05-07 01:24 28.49027 -93.00116 20919 ft 335 kts 56°
2026-05-07 01:25 28.50254 -92.97903 20917 ft 335 kts 56°
2026-05-07 01:25 28.51497 -92.95660 20917 ft 335 kts 56°
2026-05-07 01:25 28.52744 -92.93410 20917 ft 336 kts 56°
2026-05-07 01:25 28.53984 -92.91171 20916 ft 336 kts 56°
2026-05-07 01:26 28.55227 -92.88925 20925 ft 335 kts 56°
2026-05-07 01:26 28.56469 -92.86678 20925 ft 335 kts 56°
2026-05-07 01:26 28.57711 -92.84432 20925 ft 335 kts 56°
2026-05-07 01:26 28.58951 -92.82188 20925 ft 335 kts 56°
2026-05-07 01:27 28.60193 -92.79938 20923 ft 335 kts 56°
2026-05-07 01:27 28.61435 -92.77688 20923 ft 335 kts 56°
2026-05-07 01:27 28.62677 -92.75437 20922 ft 335 kts 56°
2026-05-07 01:27 28.63915 -92.73189 20934 ft 335 kts 56°
2026-05-07 01:28 28.65157 -92.70936 20930 ft 336 kts 56°
2026-05-07 01:28 28.66399 -92.68681 20928 ft 336 kts 56°
2026-05-07 01:28 28.67641 -92.66423 20923 ft 336 kts 56°
2026-05-07 01:28 28.68884 -92.64165 20924 ft 336 kts 56°
2026-05-07 01:29 28.70109 -92.61935 20924 ft 337 kts 56°
2026-05-07 01:29 28.71352 -92.59675 20924 ft 337 kts 56°
2026-05-07 01:29 28.72594 -92.57413 20927 ft 337 kts 56°
2026-05-07 01:29 28.73837 -92.55149 20928 ft 337 kts 56°
2026-05-07 01:30 28.75079 -92.52886 20928 ft 337 kts 56°
2026-05-07 01:30 28.76321 -92.50622 20927 ft 337 kts 56°
2026-05-07 01:30 28.77562 -92.48356 20927 ft 337 kts 56°
2026-05-07 01:30 28.78804 -92.46089 20927 ft 337 kts 56°
2026-05-07 01:31 28.80043 -92.43825 20932 ft 337 kts 56°
2026-05-07 01:31 28.81283 -92.41560 20931 ft 337 kts 56°
2026-05-07 01:31 28.82522 -92.39294 20931 ft 337 kts 56°
2026-05-07 01:31 28.83761 -92.37028 20931 ft 337 kts 56°
2026-05-07 01:32 28.84999 -92.34761 20929 ft 337 kts 56°
2026-05-07 01:32 28.86237 -92.32495 20930 ft 337 kts 56°
2026-05-07 01:32 28.87475 -92.30225 20930 ft 337 kts 56°
2026-05-07 01:32 28.88710 -92.27956 20930 ft 337 kts 56°
2026-05-07 01:33 28.89943 -92.25689 20930 ft 336 kts 56°
2026-05-07 01:33 28.91183 -92.23419 20931 ft 336 kts 56°
2026-05-07 01:33 28.92418 -92.21152 20932 ft 336 kts 56°
2026-05-07 01:33 28.93653 -92.18885 20933 ft 336 kts 56°
2026-05-07 01:34 28.94887 -92.16615 20943 ft 337 kts 56°
2026-05-07 01:34 28.96125 -92.14341 20938 ft 337 kts 56°
2026-05-07 01:34 28.97362 -92.12063 20936 ft 338 kts 56°
2026-05-07 01:34 28.98601 -92.09783 20934 ft 338 kts 56°
2026-05-07 01:35 28.99821 -92.07534 20933 ft 338 kts 56°
2026-05-07 01:35 29.01062 -92.05245 20933 ft 338 kts 56°
2026-05-07 01:35 29.02300 -92.02960 20933 ft 338 kts 56°
2026-05-07 01:35 29.03538 -92.00674 20933 ft 338 kts 56°
2026-05-07 01:36 29.04778 -91.98385 20939 ft 338 kts 56°
2026-05-07 01:36 29.06016 -91.96097 20939 ft 338 kts 56°
2026-05-07 01:36 29.07254 -91.93808 20938 ft 339 kts 56°
2026-05-07 01:36 29.08493 -91.91516 20938 ft 339 kts 56°
2026-05-07 01:37 29.09726 -91.89226 20934 ft 338 kts 56°
2026-05-07 01:37 29.10963 -91.86937 20935 ft 338 kts 56°
2026-05-07 01:37 29.12198 -91.84650 20936 ft 338 kts 56°
2026-05-07 01:37 29.13437 -91.82356 20941 ft 338 kts 56°
2026-05-07 01:38 29.14670 -91.80068 20938 ft 338 kts 56°
2026-05-07 01:38 29.15906 -91.77776 20939 ft 338 kts 56°
2026-05-07 01:38 29.17125 -91.75513 20939 ft 338 kts 56°
2026-05-07 01:38 29.18358 -91.73221 20939 ft 338 kts 56°
2026-05-07 01:39 29.19592 -91.70926 20941 ft 338 kts 56°
2026-05-07 01:39 29.20823 -91.68637 20941 ft 338 kts 56°
2026-05-07 01:39 29.22055 -91.66344 20944 ft 338 kts 56°
2026-05-07 01:39 29.23287 -91.64051 20944 ft 338 kts 56°
2026-05-07 01:40 29.24518 -91.61756 20956 ft 339 kts 56°
2026-05-07 01:40 29.25750 -91.59459 20950 ft 339 kts 56°
2026-05-07 01:40 29.26986 -91.57154 20947 ft 339 kts 56°
2026-05-07 01:40 29.28223 -91.54845 20946 ft 340 kts 56°
2026-05-07 01:41 29.29458 -91.52539 20942 ft 340 kts 56°
2026-05-07 01:41 29.30689 -91.50224 20944 ft 340 kts 55°
2026-05-07 01:41 29.31925 -91.47916 20945 ft 340 kts 55°
2026-05-07 01:41 29.33162 -91.45606 20946 ft 340 kts 55°
2026-05-07 01:42 29.34399 -91.43294 20947 ft 340 kts 55°
2026-05-07 01:42 29.35634 -91.40982 20947 ft 340 kts 55°
2026-05-07 01:42 29.36867 -91.38674 20946 ft 340 kts 55°
2026-05-07 01:42 29.38101 -91.36359 20918 ft 341 kts 55°
2026-05-07 01:43 29.39371 -91.33982 20394 ft 359 kts 56°
2026-05-07 01:43 29.40674 -91.31538 20075 ft 365 kts 56°
2026-05-07 01:43 29.41994 -91.29052 19918 ft 364 kts 56°
2026-05-07 01:43 29.43314 -91.26566 19776 ft 364 kts 56°
2026-05-07 01:44 29.44628 -91.24093 19641 ft 363 kts 56°
2026-05-07 01:44 29.45938 -91.21625 19501 ft 362 kts 56°
2026-05-07 01:44 29.47244 -91.19164 19361 ft 361 kts 56°
2026-05-07 01:44 29.48547 -91.16710 19220 ft 360 kts 56°
2026-05-07 01:45 29.49843 -91.14265 18952 ft 357 kts 56°
2026-05-07 01:45 29.51126 -91.11832 18611 ft 356 kts 56°
2026-05-07 01:45 29.52411 -91.09411 18271 ft 353 kts 56°
2026-05-07 01:45 29.53683 -91.07013 17781 ft 350 kts 56°
2026-05-07 01:46 29.54523 -91.05428 17424 ft 350 kts 56°
2026-05-07 01:46 29.55781 -91.03052 16919 ft 347 kts 57°
2026-05-07 01:46 29.57451 -90.99896 16256 ft 343 kts 57°
2026-05-07 01:46 29.58271 -90.98342 15926 ft 342 kts 57°
2026-05-07 01:47 29.59499 -90.96019 15439 ft 339 kts 57°
2026-05-07 01:47 29.60714 -90.93717 14945 ft 336 kts 58°
2026-05-07 01:47 29.61922 -90.91427 14463 ft 333 kts 58°
2026-05-07 01:47 29.63118 -90.89159 13952 ft 330 kts 58°
2026-05-07 01:48 29.64303 -90.86910 13403 ft 328 kts 59°
2026-05-07 01:48 29.65460 -90.84671 12838 ft 324 kts 62°
2026-05-07 01:48 29.66414 -90.82338 12290 ft 320 kts 70°
2026-05-07 01:48 29.67108 -90.79930 11761 ft 315 kts 77°
2026-05-07 01:49 29.67663 -90.77505 11219 ft 312 kts 78°
2026-05-07 01:49 29.68207 -90.75107 10700 ft 308 kts 78°
2026-05-07 01:49 29.68735 -90.72768 10179 ft 304 kts 78°
2026-05-07 01:49 29.69267 -90.70422 9640 ft 301 kts 78°
2026-05-07 01:50 29.69791 -90.68107 9068 ft 297 kts 78°
2026-05-07 01:50 29.70317 -90.65788 8496 ft 294 kts 78°
2026-05-07 01:50 29.70825 -90.63550 7947 ft 291 kts 78°
2026-05-07 01:50 29.71332 -90.61309 7424 ft 287 kts 78°
2026-05-07 01:51 29.71835 -90.59092 6869 ft 285 kts 77°
2026-05-07 01:51 29.72332 -90.56894 6345 ft 282 kts 77°
2026-05-07 01:51 29.72823 -90.54724 5802 ft 279 kts 77°
2026-05-07 01:51 29.73398 -90.52606 5218 ft 278 kts 64°
2026-05-07 01:52 29.74620 -90.50919 4626 ft 274 kts 32°
2026-05-07 01:52 29.76285 -90.50033 4298 ft 257 kts 14°
2026-05-07 01:52 29.77975 -90.49446 4147 ft 254 kts 12°
2026-05-07 01:52 29.79671 -90.48859 4071 ft 255 kts 15°
2026-05-07 01:53 29.81326 -90.48129 4038 ft 254 kts 18°
2026-05-07 01:53 29.82964 -90.47367 4024 ft 254 kts 18°
2026-05-07 01:53 29.84588 -90.46585 4002 ft 252 kts 19°
2026-05-07 01:53 29.86203 -90.45806 4007 ft 251 kts 18°
2026-05-07 01:54 29.87813 -90.45021 4003 ft 250 kts 18°
2026-05-07 01:54 29.89413 -90.44234 3994 ft 250 kts 18°
2026-05-07 01:54 29.91011 -90.43438 3990 ft 250 kts 19°
2026-05-07 01:54 29.92603 -90.42646 3988 ft 249 kts 19°
2026-05-07 01:55 29.94185 -90.41841 3984 ft 248 kts 18°
2026-05-07 01:55 29.95763 -90.41061 3988 ft 247 kts 18°
2026-05-07 01:55 29.97343 -90.40287 3991 ft 247 kts 18°
2026-05-07 01:55 29.98918 -90.39503 3986 ft 246 kts 19°
2026-05-07 01:56 30.00490 -90.38723 3990 ft 246 kts 19°
2026-05-07 01:56 30.02059 -90.37937 3982 ft 246 kts 20°
2026-05-07 01:56 30.03630 -90.37150 3988 ft 247 kts 18°
2026-05-07 01:56 30.05219 -90.36385 3994 ft 247 kts 18°
2026-05-07 01:57 30.06812 -90.35626 3990 ft 248 kts 19°
2026-05-07 01:57 30.08404 -90.34856 3994 ft 249 kts 19°
2026-05-07 01:57 30.10003 -90.34072 3996 ft 249 kts 19°
2026-05-07 01:57 30.11603 -90.33295 3994 ft 249 kts 19°
2026-05-07 01:58 30.13202 -90.32519 3995 ft 250 kts 18°
2026-05-07 01:58 30.14799 -90.31727 3997 ft 250 kts 19°
2026-05-07 01:58 30.16399 -90.30934 3986 ft 250 kts 18°
2026-05-07 01:58 30.17971 -90.30152 3985 ft 249 kts 18°
2026-05-07 01:59 30.19574 -90.29349 3755 ft 259 kts 18°
2026-05-07 01:59 30.21284 -90.28499 3213 ft 275 kts 19°
2026-05-07 01:59 30.23079 -90.27636 2667 ft 283 kts 20°
2026-05-07 01:59 30.24718 -90.26406 2318 ft 282 kts 47°
2026-05-07 02:00 30.25681 -90.24515 2120 ft 267 kts 78°
2026-05-07 02:00 30.26066 -90.22485 2061 ft 256 kts 85°
2026-05-07 02:00 30.26349 -90.20482 2019 ft 249 kts 86°
2026-05-07 02:00 30.26609 -90.18528 1996 ft 243 kts 87°
2026-05-07 02:01 30.26866 -90.16611 1985 ft 239 kts 87°
2026-05-07 02:01 30.27115 -90.14734 1988 ft 231 kts 87°
2026-05-07 02:01 30.27353 -90.12914 1985 ft 226 kts 87°
2026-05-07 02:01 30.27591 -90.11132 1986 ft 223 kts 87°
2026-05-07 02:02 30.27828 -90.09368 1992 ft 221 kts 87°
2026-05-07 02:02 30.28063 -90.07621 1988 ft 219 kts 87°
2026-05-07 02:02 30.28292 -90.05884 1982 ft 217 kts 90°
2026-05-07 02:02 30.28062 -90.04252 1994 ft 200 kts 127°
2026-05-07 02:03 30.27091 -90.03238 1997 ft 184 kts 166°
2026-05-07 02:03 30.25858 -90.03049 1983 ft 178 kts 181°
2026-05-07 02:03 30.24620 -90.03023 1979 ft 178 kts 183°
2026-05-07 02:03 30.23401 -90.03023 1995 ft 177 kts 184°
2026-05-07 02:04 30.22166 -90.03038 1991 ft 177 kts 185°
2026-05-07 02:04 30.20937 -90.03058 1989 ft 177 kts 182°
2026-05-07 02:04 30.19713 -90.03092 1989 ft 176 kts 184°
2026-05-07 02:04 30.18497 -90.03112 1989 ft 174 kts 184°
2026-05-07 02:05 30.17291 -90.03134 1989 ft 173 kts 184°
2026-05-07 02:05 30.16080 -90.03151 1999 ft 175 kts 184°
2026-05-07 02:05 30.14841 -90.03144 1844 ft 184 kts 183°
2026-05-07 02:05 30.13537 -90.03118 1593 ft 190 kts 182°
2026-05-07 02:06 30.12188 -90.03091 1349 ft 197 kts 181°
2026-05-07 02:06 30.10804 -90.03097 1096 ft 201 kts 178°
2026-05-07 02:06 30.09502 -90.03005 851 ft 169 kts 178°
2026-05-07 02:06 30.08422 -90.02977 648 ft 142 kts 179°
2026-05-07 02:07 30.07516 -90.03010 512 ft 119 kts 182°
2026-05-07 02:07 30.06046 -90.03020 201 ft 102 kts 183°
2026-05-07 02:07 30.05372 -90.02992 56 ft 91 kts 179°
2026-05-07 02:08 30.04825 -90.02986 8 ft 64 kts 179°
2026-05-07 02:08 30.04496 -90.02978 11 ft 23 kts 152°
2026-05-07 02:08 30.04479 -90.02895 10 ft 9 kts 89°
2026-05-07 02:08 30.04479 -90.02882 10 ft 0 kts 94°
2026-05-07 02:10 30.04479 -90.02881 10 ft 1 kts 94°
2026-05-07 02:11 30.04480 -90.02820 10 ft 11 kts 89°
2026-05-07 02:11 30.04484 -90.02730 10 ft 12 kts 88°
2026-05-07 02:11 30.04429 -90.02697 9 ft 9 kts 174°
2026-05-07 02:11 30.04374 -90.02694 9 ft 7 kts 185°
2026-05-07 02:12 30.04325 -90.02694 9 ft 8 kts 181°
2026-05-07 02:12 30.04261 -90.02694 9 ft 10 kts 174°
2026-05-07 02:12 30.04183 -90.02692 9 ft 12 kts 179°
2026-05-07 02:12 30.04090 -90.02691 9 ft 15 kts 180°
2026-05-07 02:13 30.03984 -90.02691 9 ft 16 kts 181°
2026-05-07 02:13 30.03869 -90.02684 9 ft 17 kts 171°
2026-05-07 02:13 30.03773 -90.02647 9 ft 14 kts 156°
2026-05-07 02:13 30.03708 -90.02583 10 ft 12 kts 96°
2026-05-07 02:14 30.03663 -90.02538 10 ft 11 kts 188°
2026-05-07 02:14 30.03619 -90.02579 9 ft 3 kts 236°
2026-05-07 02:14 30.03615 -90.02586 9 ft 0 kts 237°